Tillbaka till svenska Fidonet
English   Information   Debug  
FILM   0/18
FNEWS_PUBLISH   5034
FN_SYSOP   42247
FN_SYSOP_OLD1   71952
FTP_FIDO   0/2
FTSC_PUBLIC   0/13979
FUNNY   0/4886
GENEALOGY.EUR   0/71
GET_INFO   105
GOLDED   0/408
HAM   3435/16786
HOLYSMOKE   0/6791
HOT_SITES   0/1
HTMLEDIT   0/71
HUB203   466
HUB_100   264
HUB_400   39
HUMOR   0/29
IC   1810/2851
INTERNET   0/424
INTERUSER   0/3
IP_CONNECT   719
JAMNNTPD   0/233
JAMTLAND   0/47
KATTY_KORNER   0/41
LAN   0/16
LINUX-USER   0/19
LINUXHELP   0/1155
LINUX   0/22427
LINUX_BBS   0/957
mail   18.68
mail_fore_ok   249
MENSA   0/341
MODERATOR   0/102
MONTE   0/992
MOSCOW_OKLAHOMA   0/1245
MUFFIN   0/783
MUSIC   0/321
N203_STAT   938
N203_SYSCHAT   313
NET203   321
NET204   69
NET_DEV   0/10
NORD.ADMIN   0/101
NORD.CHAT   0/2572
NORD.FIDONET   189
NORD.HARDWARE   0/28
NORD.KULTUR   0/114
NORD.PROG   0/32
NORD.SOFTWARE   0/88
NORD.TEKNIK   0/58
NORD   0/453
OCCULT_CHAT   0/93
OS2BBS   0/787
OS2DOSBBS   0/580
OS2HW   0/42
OS2INET   0/37
OS2LAN   0/134
OS2PROG   0/36
OS2REXX   0/113
OS2USER-L   207
OS2   0/4835
OSDEBATE   0/18996
PASCAL   0/490
PERL   0/457
PHP   0/45
POINTS   0/405
POLITICS   0/29554
POL_INC   14077/14731
PSION   103
R20_ADMIN   1133
R20_AMATORRADIO   0/2
R20_BEST_OF_FIDONET   16
R20_CHAT   0/897
R20_DEPP   0/3
R20_DEV   400
R20_ECHO2   1934
R20_ECHOPRES   0/35
R20_ESTAT   0/719
R20_FIDONETPROG...
...RAM.MYPOINT
  0/2
R20_FIDONETPROGRAM   0/22
R20_FIDONET   0/248
R20_FILEFIND   0/24
R20_FILEFOUND   0/22
R20_HIFI   0/3
R20_INFO2   3827
R20_INTERNET   0/12940
R20_INTRESSE   0/60
R20_INTR_KOM   0/99
R20_KANDIDAT.CHAT   42
R20_KANDIDAT   28
R20_KOM_DEV   112
R20_KONTROLL   0/13360
R20_KORSET   0/18
R20_LOKALTRAFIK   0/24
R20_MODERATOR   0/1852
R20_NC   76
R20_NET200   245
R20_NETWORK.OTH...
...ERNETS
  0/13
R20_OPERATIVSYS...
...TEM.LINUX
  0/44
R20_PROGRAMVAROR   0/1
R20_REC2NEC   534
R20_SFOSM   0/341
R20_SF   0/108
R20_SPRAK.ENGLISH   0/1
R20_SQUISH   107
R20_TEST   2
R20_WORST_OF_FIDONET   20
RAR   0/9
RA_MULTI   106
RA_UTIL   0/162
REGCON.EUR   0/2072
REGCON   0/13
SCIENCE   0/1206
SF   0/239
SHAREWARE_SUPPORT   0/5146
SHAREWRE   0/14
SIMPSONS   0/169
STATS_OLD1   2509/2539.065
STATS_OLD2   0/2530
STATS_OLD3   0/2395.095
STATS_OLD4   0/1692.25
SURVIVOR   0/495
SYSOPS_CORNER   0/3
SYSOP   0/84
TAGLINES   0/112
TEAMOS2   0/4530
TECH   0/2617
TEST.444   0/105
TRAPDOOR   0/19
TREK   0/755
TUB   0/290
UFO   0/40
UNIX   0/1316
USA_EURLINK   0/102
USR_MODEMS   0/1
VATICAN   0/2740
VIETNAM_VETS   0/14
VIRUS   0/378
VIRUS_INFO   0/201
VISUAL_BASIC   0/473
WHITEHOUSE   0/5187
WIN2000   0/101
WIN32   0/30
WIN95   2952/4291
WIN95_OLD1   62017/70272
WINDOWS   0/1517
WWB_SYSOP   0/419
WWB_TECH   0/810
ZCC-PUBLIC   0/1
ZEC   4

 
4DOS   0/134
ABORTION   0/7
ALASKA_CHAT   0/506
ALLFIX_FILE   0/1313
ALLFIX_FILE_OLD1   0/7997
ALT_DOS   0/152
AMATEUR_RADIO   0/1039
AMIGASALE   0/14
AMIGA   0/331
AMIGA_INT   0/1
AMIGA_PROG   0/20
AMIGA_SYSOP   0/26
ANIME   0/15
ARGUS   0/924
ASCII_ART   0/340
ASIAN_LINK   0/651
ASTRONOMY   0/417
AUDIO   0/92
AUTOMOBILE_RACING   0/105
BABYLON5   0/17862
BAG   135
BATPOWER   0/361
BBBS.ENGLISH   0/382
BBSLAW   0/109
BBS_ADS   0/5290
BBS_INTERNET   0/507
BIBLE   695/3563
BINKD   0/1119
BINKLEY   0/215
BLUEWAVE   0/2173
CABLE_MODEMS   0/25
CBM   0/46
CDRECORD   0/66
CDROM   0/20
CLASSIC_COMPUTER   0/378
COMICS   0/15
CONSPRCY   0/899
COOKING   42383
COOKING_OLD1   0/24719
COOKING_OLD2   0/40862
COOKING_OLD3   0/37489
COOKING_OLD4   15808/35496
COOKING_OLD5   9370
C_ECHO   0/189
C_PLUSPLUS   0/31
DIRTY_DOZEN   0/201
DOORGAMES   1549/2388
DOS_INTERNET   0/196
duplikat   6102
ECHOLIST   12118/18295
EC_SUPPORT   0/318
ELECTRONICS   0/359
ELEKTRONIK.GER   1534
ENET.LINGUISTIC   0/13
ENET.POLITICS   0/4
ENET.SOFT   0/11701
ENET.SYSOP   34411
ENET.TALKS   0/32
ENGLISH_TUTOR   0/2000
EVOLUTION   0/1335
FDECHO   0/217
FDN_ANNOUNCE   2419/7068
FIDONEWS   25226
FIDONEWS_OLD1   0/49742
FIDONEWS_OLD2   0/35949
FIDONEWS_OLD3   0/30874
FIDONEWS_OLD4   0/37224
FIDO_SYSOP   12977
FIDO_UTIL   0/180
FILEFIND   0/209
FILEGATE   0/212
Möte HAM, 16786 texter
 lista första sista föregående nästa
Text 5519, 1007 rader
Skriven 2012-09-13 23:02:03 av Amsat List (1:323/120.0)
Ärende: [keps] orb12257.amsa
============================
[keps] orb12257.amsa

Sender: keps-bounces@amsat.org
Return-Path: <keps-bounces@amsat.org>
X-Rcpt: craig.healy@chowda.com
X-UIDL: 1347590390.13101

SB KEPS @ AMSAT  $ORB12257.O
Orbital Elements  12257.OSCAR

HR AMSAT ORBITAL ELEMENTS FOR OSCAR SATELLITES
FROM WA5QGD FORT WORTH,TX September 13, 2012
Send SUBSCRIBE KEPS/UNSUBSCRIBE KEPS to majordomo@amsat.org only
BID: ORB12257.O
TO ALL RADIO AMATEURS BT

Satellite: AO-07
Catalog number: 07530
Epoch time:      12256.61218065
Element set:     479
Inclination:      101.4099 deg
RA of node:       250.4681 deg
Eccentricity:    0.0012001
Arg of perigee:   109.6272 deg
Mean anomaly:     250.6089 deg
Mean motion:   12.53591141 rev/day
Decay rate:       -2.7e-07 rev/day^2
Epoch rev:           73100
Checksum:              262

Satellite: FO-29
Catalog number: 24278
Epoch time:      12257.77753750
Element set:     933
Inclination:      098.5869 deg
RA of node:       346.8525 deg
Eccentricity:    0.0350746
Arg of perigee:   159.8737 deg
Mean anomaly:     201.6626 deg
Mean motion:   13.52988495 rev/day
Decay rate:       -2.4e-07 rev/day^2
Epoch rev:           79393
Checksum:              376

Satellite: SO-33
Catalog number: 25509
Epoch time:      12256.25697024
Element set:    0322
Inclination:      031.4340 deg
RA of node:       200.9388 deg
Eccentricity:    0.0352710
Arg of perigee:   245.1762 deg
Mean anomaly:     111.1807 deg
Mean motion:   14.28811000 rev/day
Decay rate:        6.7e-07 rev/day^2
Epoch rev:           72511
Checksum:              259

Satellite: RS-22
Catalog number: 27939
Epoch time:      12257.77523525
Element set:     720
Inclination:      097.8068 deg
RA of node:       094.0292 deg
Eccentricity:    0.0013316
Arg of perigee:   349.4917 deg
Mean anomaly:     010.6014 deg
Mean motion:   14.64126617 rev/day
Decay rate:       4.34e-06 rev/day^2
Epoch rev:           47884
Checksum:              313

Satellite: VO-52
Catalog number: 28650
Epoch time:      12256.62998154
Element set:    0206
Inclination:      097.5923 deg
RA of node:       283.2924 deg
Eccentricity:    0.0027373
Arg of perigee:   112.3048 deg
Mean anomaly:     248.1060 deg
Mean motion:   14.83164870 rev/day
Decay rate:       7.65e-06 rev/day^2
Epoch rev:           39793
Checksum:              324

Satellite: HO-68
Catalog number: 36122
Epoch time:      12257.68798889
Element set:     825
Inclination:      100.3514 deg
RA of node:       315.2139 deg
Eccentricity:    0.0007045
Arg of perigee:   267.5177 deg
Mean anomaly:     092.5125 deg
Mean motion:   13.16297849 rev/day
Decay rate:       -4.4e-07 rev/day^2
Epoch rev:           13203
Checksum:              315

/EX
SB KEPS @ AMSAT  $ORB12257.D
Orbital Elements  12257.MICROS

HR AMSAT ORBITAL ELEMENTS FOR THE MICROSATS
FROM WA5QGD FORT WORTH,TX September 13, 2012
Send SUBSCRIBE KEPS/UNSUBSCRIBE KEPS to majordomo@amsat.org only
BID: ORB12257.D
TO ALL RADIO AMATEURS BT

Satellite: UO-11
Catalog number: 14781
Epoch time:      12257.79308521
Element set:     974
Inclination:      097.9459 deg
RA of node:       316.4977 deg
Eccentricity:    0.0010107
Arg of perigee:   103.2844 deg
Mean anomaly:     256.9492 deg
Mean motion:   14.80554805 rev/day
Decay rate:       3.02e-06 rev/day^2
Epoch rev:           53304
Checksum:              313

Satellite: AO-16
Catalog number: 20439
Epoch time:      12257.82118714
Element set:     557
Inclination:      098.4361 deg
RA of node:       198.7400 deg
Eccentricity:    0.0009958
Arg of perigee:   258.0110 deg
Mean anomaly:     101.9955 deg
Mean motion:   14.32083533 rev/day
Decay rate:       1.63e-06 rev/day^2
Epoch rev:           18268
Checksum:              306

Satellite: LO-19
Catalog number: 20442
Epoch time:      12257.83078848
Element set:     487
Inclination:      098.4037 deg
RA of node:       201.4498 deg
Eccentricity:    0.0011019
Arg of perigee:   247.8629 deg
Mean anomaly:     112.1388 deg
Mean motion:   14.32299193 rev/day
Decay rate:        3.9e-07 rev/day^2
Epoch rev:           18287
Checksum:              329

Satellite: AO-27
Catalog number: 22825
Epoch time:      12256.88058230
Element set:    0207
Inclination:      098.5803 deg
RA of node:       198.3563 deg
Eccentricity:    0.0008966
Arg of perigee:   026.9075 deg
Mean anomaly:     333.2562 deg
Mean motion:   14.29485131 rev/day
Decay rate:       1.39e-06 rev/day^2
Epoch rev:           98900
Checksum:              324

Satellite: IO-26
Catalog number: 22826
Epoch time:      12256.86461518
Element set:    0961
Inclination:      098.5757 deg
RA of node:       198.6894 deg
Eccentricity:    0.0009556
Arg of perigee:   020.7233 deg
Mean anomaly:     339.4331 deg
Mean motion:   14.29761305 rev/day
Decay rate:       1.83e-06 rev/day^2
Epoch rev:           98913
Checksum:              343

Satellite: GO-32
Catalog number: 25397
Epoch time:      12257.83513956
Element set:     873
Inclination:      098.3715 deg
RA of node:       232.2259 deg
Eccentricity:    0.0002089
Arg of perigee:   045.2106 deg
Mean anomaly:     314.9270 deg
Mean motion:   14.23292676 rev/day
Decay rate:       1.65e-06 rev/day^2
Epoch rev:           73663
Checksum:              316

Satellite: NO-44
Catalog number: 26931
Epoch time:      12257.59765094
Element set:     135
Inclination:      067.0497 deg
RA of node:       252.4727 deg
Eccentricity:    0.0006613
Arg of perigee:   253.8475 deg
Mean anomaly:     106.1893 deg
Mean motion:   14.29827925 rev/day
Decay rate:      -1.14e-06 rev/day^2
Epoch rev:           57188
Checksum:              335

